GW3416 Weather Reports


time (UTC)temp
C
wind
direction
speed
KPH
gust
KPH
rain 1hr
cm
rain 24hr
cm
rain mn
cm
humidity
%
barometer
mb
20260505024519 19 22 1.6 6.4 0.00 0.00 0.00 79 1030.0
20260505023520 19 17 1.6 8.0 0.00 0.00 0.00 79 1030.0
20260505022520 19 25 1.6 6.4 0.00 0.00 0.00 78 1030.1
20260505021519 19 22 1.6 6.4 0.00 0.00 0.00 79 1030.1
20260505020520 20 31 1.6 8.0 0.00 0.00 0.00 78 1030.1
20260505015521 20 29 1.6 8.0 0.00 0.00 0.00 76 1030.2
20260505014520 20 59 1.6 9.7 0.00 0.00 0.00 76 1030.2
20260505013518 21 87 1.6 6.4 0.00 0.00 0.00 73 1030.2
20260505012518 21 7 1.6 6.4 0.00 0.00 0.00 72 1030.3
20260505011517 21 125 1.6 4.8 0.00 0.00 0.00 72 1030.3
20260505010521 21 75 1.6 6.4 0.00 0.00 0.00 74 1030.4
20260505005522 21 105 1.6 6.4 0.00 0.00 0.00 73 1030.6
20260505004518 20 74 1.6 8.0 0.00 0.00 0.00 74 1030.8
20260505003518 20 27 1.6 11.3 0.00 0.00 0.00 73 1031.0
20260505002520 20 26 1.6 9.7 0.00 0.00 0.00 72 1031.2
20260505001542 20 38 1.6 9.7 0.00 0.00 0.00 73 1031.2
20260505000521 20 68 1.6 6.4 0.00 0.00 0.00 73 1031.4
20260504235519 20 115 1.6 8.0 0.00 0.00 0.00 72 1031.4
20260504234518 19 110 0.0 4.8 0.00 0.00 0.00 74 1031.6
20260504233519 19 65 1.6 4.8 0.00 0.00 0.00 74 1031.7
20260504232518 19 118 1.6 6.4 0.00 0.00 0.00 74 1031.8
20260504231519 18 150 0.0 4.8 0.00 0.00 0.00 75 1031.9
20260504230520 18 103 1.6 4.8 0.00 0.00 0.00 74 1032.0
20260504225519 18 139 1.6 4.8 0.00 0.00 0.00 74 1032.2
20260504224519 18 131 1.6 4.8 0.00 0.00 0.00 74 1032.3
20260504223519 18 143 0.0 3.2 0.00 0.00 0.00 75 1032.2
20260504222519 17 127 0.0 3.2 0.00 0.00 0.00 77 1032.3
20260504221520 17 147 1.6 4.8 0.00 0.00 0.00 78 1032.4
20260504220520 17 138 1.6 4.8 0.00 0.00 0.00 79 1032.5
20260504215520 16 159 1.6 3.2 0.00 0.00 0.00 80 1032.5
20260504214540 16 163 0.0 3.2 0.00 0.00 0.00 82 1032.5
20260504213517 16 145 0.0 3.2 0.00 0.00 0.00 85 1032.5
20260504212516 15 174 0.0 3.2 0.00 0.00 0.00 87 1032.5
20260504211558 15 126 0.0 3.2 0.00 0.00 0.00 90 1032.5
20260504210557 14 174 0.0 1.6 0.00 0.00 0.00 92 1032.4
20260504205528 13 162 1.6 4.8 0.00 0.00 0.00 93 1032.5
20260504204528 13 186 0.0 3.2 0.00 0.00 0.00 94 1032.5
20260504203549 13 0.0 0.0 0.00 0.00 0.00 94 1032.5
20260504202529 13 0.0 0.0 0.00 0.00 0.00 94 1032.4
20260504201530 12 0.0 0.0 0.00 0.00 0.00 94 1032.3
20260504200549 12 0.0 0.0 0.00 0.00 0.00 94 1032.2
20260504195528 12 0.0 0.0 0.00 0.00 0.00 94 1032.2
20260504194530 12 0.0 0.0 0.00 0.00 0.00 94 1032.1
20260504193529 12 164 0.0 0.0 0.00 0.00 0.00 94 1032.1
20260504192529 12 172 0.0 1.6 0.00 0.00 0.00 94 1032.1
20260504191529 12 0.0 0.0 0.00 0.00 0.00 94 1032.2
20260504190550 12 0.0 0.0 0.00 0.00 0.00 94 1032.2
20260504185550 12 197 0.0 1.6 0.00 0.00 0.00 94 1032.1
20260504184529 12 0.0 0.0 0.00 0.00 0.00 94 1032.2
20260504183529 12 0.0 0.0 0.00 0.00 0.00 94 1032.2
20260504182529 12 0.0 0.0 0.00 0.00 0.00 94 1032.1
20260504181521 11 172 0.0 1.6 0.00 0.00 0.00 94 1032.0
20260504180520 11 0.0 0.0 0.00 0.00 0.00 93 1032.0
20260504175517 11 0.0 0.0 0.00 0.00 0.00 93 1032.0
20260504174518 11 0.0 0.0 0.00 0.00 0.00 93 1032.0
20260504173538 11 0.0 0.0 0.00 0.00 0.00 93 1032.0
20260504172518 11 0.0 0.0 0.00 0.00 0.00 93 1031.9
20260504171518 11 0.0 0.0 0.00 0.00 0.00 93 1031.9
20260504170538 10 0.0 0.0 0.00 0.00 0.00 93 1031.9
20260504150519 11 0.0 0.0 0.00 0.00 0.00 91 1032.3
20260504140520 12 161 0.0 1.6 0.00 0.00 0.00 90 1032.8
20260504130521 12 0.0 0.0 0.00 0.00 0.00 90 1033.3
20260504110519 12 0.0 0.0 0.00 0.00 0.00 91 1033.4
20260504100542 11 0.0 0.0 0.00 0.00 0.00 90 1033.5
20260504081521 11 188 0.0 0.0 0.00 0.00 0.00 87 1033.3
20260504080518 11 0.0 0.0 0.00 0.00 0.00 87 1033.4
20260504050521 18 165 1.6 3.2 0.00 0.00 0.00 67 1032.1
20260504045521 19 164 0.0 3.2 0.00 0.00 0.00 64 1032.0
20260504044517 20 149 0.0 4.8 0.00 0.00 0.00 62 1031.9
20260504043518 20 140 0.0 4.8 0.00 0.00 0.00 60 1031.9
20260504042521 20 179 0.0 3.2 0.00 0.00 0.00 62 1031.9
20260504041521 18 155 1.6 3.2 0.00 0.00 0.00 64 1032.0
20260504040518 19 103 0.0 4.8 0.00 0.00 0.00 64 1032.2
20260504035519 19 128 0.0 3.2 0.00 0.00 0.00 65 1032.2
20260504034518 19 82 0.0 4.8 0.00 0.00 0.00 65 1032.2
20260504033519 19 153 0.0 4.8 0.00 0.00 0.00 64 1032.2
20260504032519 20 117 1.6 4.8 0.00 0.00 0.00 62 1032.1
20260504031519 20 145 1.6 3.2 0.00 0.00 0.00 61 1032.2
20260504030519 20 136 0.0 4.8 0.00 0.00 0.00 62 1032.2
20260504025518 19 103 1.6 6.4 0.00 0.00 0.00 62 1032.2